Moline, IL

11:15 PM CDT on April 29, 2017 (GMT -0500)
Quad-City International

Weather History for KMLI - May, 2014

Change the Weather History Date:

Friday, May 30, 2014

  Actual Average Record
Temperature  
Mean Temperature 74 °F 66 °F  
Max Temperature 87 °F 77 °F 98 °F (1934)
Min Temperature 61 °F 55 °F 38 °F (1889)
Degree Days  
Heating Degree Days 0 2  
Month to date heating degree days 162 158  
Since 1 July heating degree days 7313 6181  
Cooling Degree Days 9 4  
Month to date cooling degree days 93 59  
Year to date cooling degree days 98 73  
Growing Degree Days 24 (Base 50)    
Moisture  
Dew Point 59 °F    
Average Humidity 61    
Maximum Humidity 84    
Minimum Humidity 37    
Precipitation  
Precipitation 0.00 in 0.15 in 2.47 in (2004)
Month to date precipitation 2.86 4.17  
Year to date precipitation 11.56 13.71  
Snow  
Snow 0.00 in 0.00 in - ()
Month to date snowfall 0.0 0.0  
Since 1 July snowfall 65.1 31.6  
Snow Depth 0.00 in    
Sea Level Pressure  
Sea Level Pressure 30.09 in    
Wind  
Wind Speed 8 mph (East)    
Max Wind Speed 16 mph    
Max Gust Speed 22 mph    
Visibility 10 miles    
Events      
T = Trace of Precipitation, MM = Missing Value Source: NWS Daily Summary

Daily Weather History Graph

Daily Weather History Graph

Search for Another Location

Airport or City:

Trip Planner

Search our weather history database for the weather conditions in past years. The results will help you decide how hot, cold, wet, or windy it might be!

Date:

Astronomy

May. 30, 2014 Rise Set
Actual Time 5:31 AM CDT 8:27 PM CDT
Civil Twilight 4:58 AM CDT 9:00 PM CDT
Nautical Twilight 4:16 AM CDT 9:42 PM CDT
Astronomical Twilight 3:28 AM CDT 10:31 PM CDT
Moon 7:16 AM CDT 10:03 PM CDT
Length of Visible Light 16h 02m
Length of Day
14h 56m
Waxing Crescent, 4% of the Moon is Illuminated
May 30
Waxing Crescent
Jun 5
First Quarter
Jun 12
Full
Jun 19
Last Quarter
Jun 27
New

Hourly Weather History & Observations

Time (CDT) Temp. Heat Index Dew Point Humidity Pressure Visibility Wind Dir Wind Speed Gust Speed Precip Events Conditions
12:52 AM 66.9 °F - 57.0 °F 70% 30.08 in 10.0 mi East 9.2 mph - N/A   Clear
1:52 AM 64.0 °F - 57.0 °F 78% 30.07 in 10.0 mi East 5.8 mph - N/A   Clear
2:52 AM 62.1 °F - 57.0 °F 84% 30.07 in 10.0 mi East 5.8 mph - N/A   Clear
3:52 AM 63.0 °F - 57.0 °F 81% 30.07 in 10.0 mi East 6.9 mph - N/A   Clear
4:52 AM 62.1 °F - 55.9 °F 80% 30.07 in 10.0 mi East 6.9 mph - N/A   Clear
5:52 AM 63.0 °F - 55.9 °F 78% 30.09 in 9.0 mi ENE 8.1 mph - N/A   Clear
6:52 AM 63.0 °F - 55.9 °F 78% 30.12 in 9.0 mi East 9.2 mph - N/A   Clear
7:52 AM 64.9 °F - 55.9 °F 73% 30.13 in 10.0 mi East 8.1 mph - N/A   Mostly Cloudy
8:52 AM 69.1 °F - 57.9 °F 68% 30.14 in 10.0 mi ESE 6.9 mph - N/A   Clear
9:52 AM 71.6 °F - 60.8 °F 69% 30.14 in 10.0 mi Variable 4.6 mph - N/A   Clear
10:52 AM 78.1 °F - 64.0 °F 62% 30.13 in 10.0 mi East 6.9 mph - N/A   Clear
11:52 AM 81.0 °F 83.0 °F 66.0 °F 60% 30.12 in 10.0 mi ENE 6.9 mph - N/A   Clear
12:52 PM 82.0 °F 84.1 °F 66.0 °F 58% 30.10 in 10.0 mi NE 6.9 mph - N/A   Clear
1:52 PM 82.0 °F 83.8 °F 64.9 °F 56% 30.08 in 10.0 mi NE 11.5 mph - N/A   Mostly Cloudy
2:52 PM 84.9 °F 86.6 °F 64.9 °F 51% 30.07 in 10.0 mi East 10.4 mph - N/A   Scattered Clouds
3:52 PM 87.8 °F 88.5 °F 62.6 °F 43% 30.07 in 10.0 mi East 9.2 mph - N/A   Scattered Clouds
4:52 PM 84.9 °F 85.4 °F 62.1 °F 46% 30.05 in 10.0 mi East 9.2 mph - N/A   Partly Cloudy
5:52 PM 84.9 °F 84.4 °F 59.0 °F 41% 30.05 in 10.0 mi East 10.4 mph - N/A   Partly Cloudy
6:52 PM 82.0 °F 81.3 °F 54.0 °F 38% 30.05 in 10.0 mi East 9.2 mph - N/A   Clear
7:52 PM 75.0 °F - 57.9 °F 55% 30.05 in 10.0 mi East 5.8 mph - N/A   Clear
8:52 PM 72.0 °F - 55.0 °F 55% 30.05 in 10.0 mi ESE 4.6 mph - N/A   Clear
9:52 PM 72.0 °F - 55.0 °F 55% 30.07 in 10.0 mi East 5.8 mph - N/A   Clear
10:52 PM 68.0 °F - 54.0 °F 61% 30.09 in 10.0 mi ESE 8.1 mph - N/A   Clear
11:52 PM 66.0 °F - 55.0 °F 68% 30.11 in 10.0 mi East 6.9 mph - N/A   Clear